Home   Weather   Gothenburg   Past weeks

Flag for Sweden Past Weather in Gothenburg, Sweden — Yesterday and Last 2 Weeks

Now
66 °F

Sunny.


Feels Like: 66 °F
Forecast: 54 / 63 °F
Wind: 12 mph from South

Location: Gothenburg / Save

Current Time: Sep 25, 2016 at 5:44:34 PM

Latest Report: Sep 25, 2016 at 5:20 PM


Visibility: 10 mi

Pressure: 30.09 "Hg

Humidity: 60%

Dew Point: 52 °F

Location of GothenburgLocation

Past Weather in Gothenburg — Graph

°F

Gothenburg Temperature Yesterday

Maximum temperature yesterday: 63 °F (at 11:50 AM)
Minimum temperature yesterday: 54 °F (at 6:50 AM)
Average temperature yesterday: 58 °F

High & Low Weather Summary for the Past Weeks

 TemperatureHumidityPressure
High79 °F (Sep 14, 3:20 PM)100% (Sep 12, 7:50 AM)30.24 "Hg (Sep 12, 7:50 AM)
Low45 °F (Sep 12, 6:20 AM)44% (Sep 15, 2:50 PM)29.83 "Hg (Sep 11, 5:20 AM)
Average60 °F78%30.11 "Hg
* Reported Sep 10 4:20 PM — Sep 25 4:20 PM, Gothenburg, Weather by CustomWeather, © 2016

Note: Actual official high and low records may vary slightly from our data, if they occured in-between our weather recording intervals... More about our weather records

Advertising

Gothenburg Weather History for the Previous 24 Hours

Scroll right to see more
 ConditionsComfort  
Time TempWeatherWind HumidityBarometerVisibility
4:20 PM
Sun, Sep 25
66 °FPassing clouds.13 mph64%30.12 "HgN/A
3:50 PM66 °FScattered clouds.12 mph64%30.12 "HgN/A
3:20 PM68 °FPassing clouds.10 mph64%30.12 "HgN/A
2:50 PM68 °FPassing clouds.12 mph64%30.12 "HgN/A
2:20 PM66 °FPassing clouds.12 mph68%30.12 "HgN/A
1:50 PM66 °FPassing clouds.10 mph68%30.12 "HgN/A
1:20 PM64 °FPassing clouds.9 mph73%30.12 "HgN/A
12:50 PM64 °FPassing clouds.10 mph73%30.12 "HgN/A
12:20 PM64 °FPassing clouds.13 mph73%30.12 "HgN/A
11:50 AM64 °FScattered clouds.12 mph78%30.12 "HgN/A
11:20 AM63 °FScattered clouds.12 mph77%30.12 "HgN/A
10:50 AM61 °FPassing clouds.10 mph83%30.12 "HgN/A
10:20 AM61 °FSunny.8 mph83%30.12 "Hg10 mi
9:50 AM59 °FSunny.9 mph82%30.12 "Hg10 mi
9:20 AM57 °FPassing clouds.7 mph88%30.12 "HgN/A
8:50 AM57 °FPassing clouds.8 mph88%30.12 "HgN/A
8:20 AM55 °FPartly sunny.8 mph94%30.12 "HgN/A
7:50 AM55 °FPassing clouds.8 mph88%30.12 "HgN/A
7:20 AM55 °FCool.7 mph88%30.12 "HgN/A
6:50 AM55 °FPassing clouds.6 mph88%30.12 "HgN/A
6:20 AM54 °FCool.5 mph94%30.12 "HgN/A
5:50 AM54 °FPassing clouds.5 mph94%30.12 "HgN/A
5:20 AM55 °FPassing clouds.6 mph88%30.12 "HgN/A
4:50 AM55 °FMostly cloudy.7 mph94%30.12 "HgN/A
4:20 AM55 °FPassing clouds.6 mph88%30.12 "HgN/A
3:50 AM54 °FPassing clouds.7 mph94%30.12 "HgN/A
3:20 AM52 °FPassing clouds.6 mph94%30.12 "HgN/A
2:50 AM54 °FPassing clouds.5 mph94%30.12 "HgN/A
2:20 AM54 °FCool.5 mph94%30.12 "HgN/A
1:50 AM54 °FCool.3 mph94%30.12 "HgN/A
1:20 AM54 °FCool.6 mph88%30.12 "HgN/A
12:50 AM55 °FCool.6 mph88%30.15 "HgN/A
12:20 AM55 °FCool.6 mph88%30.15 "HgN/A
11:50 PM
Sat, Sep 24
55 °FCool.6 mph88%30.15 "HgN/A
11:20 PM54 °FCool.6 mph94%30.15 "HgN/A
10:50 PM54 °FCool.3 mph88%30.15 "HgN/A
10:20 PM55 °FCool.7 mph88%30.15 "HgN/A
9:50 PM55 °FClear.6 mph88%30.15 "Hg10 mi
9:20 PM55 °FClear.6 mph88%30.15 "Hg10 mi
8:50 PM55 °FClear.6 mph82%30.15 "Hg10 mi
8:20 PM55 °FClear.6 mph82%30.15 "Hg10 mi
7:50 PM55 °FClear.5 mph82%30.12 "Hg10 mi
7:20 PM57 °FClear.5 mph77%30.12 "Hg10 mi
6:50 PM57 °FSunny.6 mph77%30.12 "Hg10 mi
6:20 PM59 °FSunny.8 mph72%30.12 "Hg10 mi
5:50 PM61 °FPassing clouds.10 mph72%30.12 "HgN/A
5:20 PM63 °FScattered clouds.13 mph68%30.15 "HgN/A
Weather by CustomWeather, © 2016

See weather overviewHow to use our weather pages